Regional Weather Roundup
Issued by NWS Green Bay, WI

Home | Current Version | Previous Version | Text Only | Print | Product List | Glossary On
Versions: 1 2 3 4 5 6 7 8 9 10 11 12 13 14 15 16 17 18 19 20 21 22 23 24 25 26 27 28 29 30 31 32 33 34 35 36 37 38 39 40 41 42 43 44 45 46 47 48 49 50
616
ASUS43 KGRB 211411
RWRGRB

NORTH-CENTRAL AND NORTHEAST WISCONSIN REGIONAL WEATHER ROUNDUP
NATIONAL WEATHER SERVICE GREEN BAY WI
900 AM CDT THU SEP 21 2017

WIZ005-009-010>012-018-019-211500-
NORTH CENTRAL WISCONSIN

CITY           SKY/WX    TMP DP  RH WIND       PRES   REMARKS
IRONWOOD       SUNNY     56  54  93 E5        30.06S
MANITOWISH WTR SUNNY     58  58 100 E5        30.07R
ARBOR VITAE    SUNNY     59  58  96 E5        30.07R
EAGLE RIVER    MOSUNNY   58  58 100 E5        30.07S
LAND O LAKES   MOSUNNY   58  58 100 E3        30.09F
RHINELANDER    SUNNY     60  59  96 E9        30.07S
PHILLIPS       SUNNY     55  55 100 CALM      30.05S
ANTIGO         MOSUNNY   64  59  82 E9        30.06F
TOMAHAWK         N/A     58  58  97 E3        30.05F
MERRILL          N/A     59  59 100 E5        30.05F
$$

WIZ013-073-211500-
NORTHEAST WISCONSIN

CITY           SKY/WX    TMP DP  RH WIND       PRES   REMARKS
IRON MOUNTAIN  MOSUNNY   63  58  83 N5        30.06R
MARINETTE        N/A     67  62  84 MISG        N/A
OCONTO         CLOUDY    67  62  84 CALM      30.03R
$$

WIZ017-030-035>037-045-211500-
CENTRAL WISCONSIN

CITY           SKY/WX    TMP DP  RH WIND       PRES   REMARKS
MEDFORD        SUNNY     61  56  84 E7        30.04R
WAUSAU         CLOUDY    62  59  90 E7        30.03S
MOSINEE        CLOUDY    63  63 100 E9        30.05S
MARSHFIELD     PTSUNNY   63  59  87 E10       30.03R
WISC RAPIDS    CLOUDY    67  67 100 E7        30.04R FOG
STEVENS POINT  CLOUDY    63  63 100 E7        30.05R FOG
WAUPACA        CLOUDY    68  68  98 NE3       30.03R FOG
SHAWANO        CLOUDY    68  65  89 NE6       30.04S
CLINTONVILLE   NOT AVBL
WAUTOMA        CLOUDY    66  66 100 E6        30.03S FOG
$$

WIZ038-039-048-051-211500-
FOX VALLEY

CITY           SKY/WX    TMP DP  RH WIND       PRES   REMARKS
NWS GREEN BAY  CLOUDY    68  66  93 NE12      30.03S
APPLETON       CLOUDY    66  66 100 E6        30.02R FOG
OSHKOSH        CLOUDY    69  68  96 E6        30.02R
FOND DU LAC    CLOUDY    71  66  84 E5        30.02R
$$

WIZ022-050-052-211500-
EAST CENTRAL WISCONSIN

CITY           SKY/WX    TMP DP  RH WIND       PRES   REMARKS
EPHRAIM        PTSUNNY   66  63  90 N7        30.03R
WASHINGTON ISL CLOUDY    66  64  92 N7        30.02R
STURGEON BAY   CLOUDY    68  66  93 N6        30.03S
MANITOWOC      MOSUNNY   71  67  87 N3        30.03R
SHEBOYGAN      CLOUDY    72  69  90 CALM      30.02S
$$

LMZ563-521-522-541>543-211500-
LAKESHORE

STATION/POSITION TIME  TEMP    WIND        PRES    VSBY  WAVE
                       AIR SEA DIR/SP/G                  HT/PER
                 (UTC) (F)     (DEG/KT/KT) (MB)    (MI)  (FT/S)
SHEBOYGAN LKSHOR 1400   70      10/  6/  6 1016.1R
KEWAUNEE LKSHORE 1348   66      30/  1/  4 1015.9R
NORTHPORT PIER   1340   67     340/  6/  8 1016.3S
N MID LAKE BUOY  1350   66 65   10/  8/ 12 1016.6R         2/ 5
S GREEN BAY BUOY 1400   67 66   40/ 10/ 12 1016.7
SISTER BAY LKSHO 1404   70      40/  7/  9   N/A
MENOMINEE LKSHOR 1348   67     360/ 10/ 11 1016.5R
$$




USA.gov is the U.S. government's official web portal to all federal, state and local government web resources and services.